Regional Weather Roundup
Issued by NWS

Home | Current Version | Previous Version | Text Only | Print | Product List | Glossary Off
Versions: 1 2 3 4 5 6 7 8 9 10 11 12 13 14 15 16 17 18 19 20 21 22 23 24 25 26 27 28 29 30 31 32 33 34 35 36 37 38 39 40 41 42 43 44 45 46 47 48 49 50

359
ASUS44 KJAN 301903
RWRMS

MISSISSIPPI HOURLY WEATHER ROUNDUP
NATIONAL WEATHER SERVICE JACKSON MS
200 PM CDT MON MAR 30 2015

NOTE: "FAIR: INDICATES FEW OR NO CLOUDS BELOW 12,000 FEET WITH NO
SIGNIFICANT WEATHER AND/OR OBSTRUCTIONS TO VISIBILITY.

MSZ001>002-007>008-010>013-018>021-025>028-034>036-302000-
NORTHWEST MISSISSIPPI

CITY           SKY/WX    TMP DP  RH WIND       PRES   REMARKS
CLARKSDALE     FAIR      68  48  49 CALM      30.21F
CLEVELAND      FAIR      72  49  43 N3        30.19F
GREENWOOD      SUNNY     75  45  34 CALM      30.18F
GREENVILLE     SUNNY     73  48  41 MISG      30.18F
OLIVE BRANCH   MOSUNNY   66  43  42 SE6       30.20F
OXFORD         FAIR      68  41  37 CALM      30.21F
TUNICA         CLEAR     68  45  42 NW5       30.20F
$$

MSZ003>006-009-014>017-022>024-029>033-037>039-302000-
NORTHEAST MISSISSIPPI

CITY           SKY/WX    TMP DP  RH WIND       PRES   REMARKS
COLUMBUS AFB   SUNNY     73  45  36 N3        30.17F
CORINTH        FAIR      66  39  37 CALM      30.20F
GOLDN TRIANGLE MOSUNNY   73  48  40 NW6       30.18F
STARKVILLE     FAIR      70  50  49 N5        30.18F
TUPELO         SUNNY     70  44  39 NE9       30.19F
$$

MSZ040-058-302000-
CENTRAL MISSISSIPPI

CITY           SKY/WX    TMP DP  RH WIND       PRES   REMARKS
JACKSON INTL   PTSUNNY   74  61  63 VRB6      30.19F
JACKSON HAWKNS PTSUNNY   74  61  63 VRB6      30.19F
MERIDIAN KEY   CLOUDY    72  61  68 NW8       30.19F
MERIDIAN NAS   PTSUNNY   72  60  66 N8        30.17F
RAYMOND        FAIR      75  70  83 W7G14     30.18F
VICKSBURG      CLOUDY    73  61  65 CALM      30.19F
$$

MSZ059>079-302000-
SOUTH MISSISSIPPI

CITY           SKY/WX    TMP DP  RH WIND       PRES   REMARKS
BROOKHAVEN     FAIR      81  57  44 W12G20    30.20F
HATTIESBURG    MOSUNNY   81  56  42 NW15      30.19F
MCCOMB         PTSUNNY   79  57  46 W10       30.19F
NATCHEZ        MOSUNNY   79  59  50 CALM      30.20F
PINE BELT      MOSUNNY   79  55  44 W8G20     30.20F
$$

MSZ080>082-302000-
COASTAL MISSISSIPPI

CITY           SKY/WX    TMP DP  RH WIND       PRES   REMARKS
BAY ST LOUIS   PTSUNNY   81  55  41 MISG      30.19F
BILOXI         MOSUNNY   76  66  71 S12       30.19F
PASCAGOULA     SUNNY     79  63  57 SW10G22   30.19F
GULFPORT       PTSUNNY   76  63  64 S12       30.19F
$$



USA.gov is the U.S. government's official web portal to all federal, state and local government web resources and services.